Custer, SD

11:16 PM MDT on September 19, 2017 (GMT -0600)
Custer County

Weather History for KCUT - July, 2013

Change the Weather History Date:

Sunday, July 21, 2013

  Actual Average Record
Temperature  
Mean Temperature 67 °F 66 °F  
Max Temperature 81 °F 80 °F 96 °F (1960)
Min Temperature 53 °F 52 °F 38 °F (1958)
Degree Days  
Heating Degree Days 0 2  
Month to date heating degree days 10 46  
Since 1 June heating degree days 203 266  
Since 1 July heating degree days 10 46  
Cooling Degree Days 2 3  
Month to date cooling degree days 58 53  
Year to date cooling degree days 69 79  
Since 1 June cooling degree days 67 78  
Growing Degree Days 18 (Base 50)    
Moisture  
Dew Point 55 °F    
Average Humidity 70    
Maximum Humidity 100    
Minimum Humidity 39    
Precipitation  
Precipitation 0.20 in 0.08 in 1.57 in (2000)
Month to date precipitation 3.14 1.69  
Year to date precipitation 11.32 12.02  
Sea Level Pressure  
Sea Level Pressure 29.89 in    
Wind  
Wind Speed 6 mph (SW)    
Max Wind Speed 16 mph    
Max Gust Speed 24 mph    
Visibility 9 miles    
Events Rain , Thunderstorm    
T = Trace of Precipitation, MM = Missing Value Source: NWS Daily Summary

Daily Weather History Graph

Daily Weather History Graph

Search for Another Location

Airport or City:

Trip Planner

Search our weather history database for the weather conditions in past years. The results will help you decide how hot, cold, wet, or windy it might be!

Date:

Astronomy

Jul. 21, 2013 Rise Set
Actual Time 5:32 AM MDT 8:28 PM MDT
Civil Twilight 4:58 AM MDT 9:02 PM MDT
Nautical Twilight 4:14 AM MDT 9:46 PM MDT
Astronomical Twilight 3:23 AM MDT 10:36 PM MDT
Moon 7:27 PM MDT (7/21) 4:21 AM MDT (7/21)
Length of Visible Light 16h 04m
Length of Day
14h 56m
Waxing Gibbous, 98% of the Moon is Illuminated
Jul 21
Waxing Gibbous
Jul 22
Full
Jul 29
Last Quarter
Aug 6
New
Aug 14
First Quarter

Hourly Weather History & Observations

Time (MDT) Temp. Heat Index Dew Point Humidity Pressure Visibility Wind Dir Wind Speed Gust Speed Precip Events Conditions
12:53 AM 59.0 °F - 57.0 °F 93% 29.86 in 10.0 mi North 4.6 mph - N/A   Mostly Cloudy
1:32 AM 60.8 °F - 57.2 °F 88% 30.06 in 10.0 mi NE 6.9 mph - N/A Thunderstorm Overcast
1:53 AM 59.0 °F - 57.0 °F 93% 29.87 in 9.0 mi NE 5.8 mph - 0.17 in Rain , Thunderstorm Light Thunderstorms and Rain
2:07 AM 60.8 °F - 57.2 °F 88% 30.07 in 10.0 mi ENE 6.9 mph - 0.00 in   Mostly Cloudy
2:53 AM 57.9 °F - 55.9 °F 93% 29.87 in 10.0 mi Calm Calm - 0.00 in   Scattered Clouds
3:13 AM 59.0 °F - 53.6 °F 82% 30.05 in 10.0 mi East 6.9 mph - N/A Thunderstorm Partly Cloudy
3:53 AM 59.0 °F - 53.1 °F 81% 29.86 in 10.0 mi SE 6.9 mph - 0.00 in Rain , Thunderstorm Light Thunderstorms and Rain
4:53 AM 57.0 °F - 53.1 °F 87% 29.83 in 10.0 mi NE 5.8 mph - 0.01 in Rain , Thunderstorm Light Rain
5:36 AM 55.4 °F - 53.6 °F 94% 30.02 in 10.0 mi Calm Calm - 0.00 in   Partly Cloudy
5:53 AM 55.9 °F - 54.0 °F 93% 29.83 in 4.0 mi Calm Calm - 0.00 in Rain Light Rain
6:48 AM 55.4 °F - 53.6 °F 94% 30.03 in 10.0 mi Variable 4.6 mph - 0.02 in   Mostly Cloudy
6:53 AM 55.9 °F - 55.0 °F 97% 29.85 in 7.0 mi Variable 5.8 mph - 0.02 in   Mostly Cloudy
7:37 AM 57.2 °F - 55.4 °F 94% 30.05 in 1.8 mi Variable 4.6 mph - N/A   Overcast
7:53 AM 55.9 °F - 55.9 °F 100% 29.88 in 2.5 mi South 9.2 mph - N/A   Overcast
8:00 AM 55.4 °F - 55.4 °F 100% 30.06 in 6.0 mi SSW 5.8 mph - N/A   Overcast
8:39 AM 57.2 °F - 55.4 °F 94% 30.07 in 10.0 mi SW 6.9 mph - N/A   Overcast
8:53 AM 60.1 °F - 55.9 °F 86% 29.89 in 10.0 mi SW 9.2 mph - N/A   Overcast
9:10 AM 62.6 °F - 55.4 °F 77% 30.06 in 10.0 mi SW 8.1 mph - N/A   Overcast
9:38 AM 62.6 °F - 55.4 °F 77% 30.05 in 10.0 mi Variable 5.8 mph 18.4 mph N/A   Scattered Clouds
9:53 AM 63.0 °F - 55.9 °F 78% 29.88 in 10.0 mi SW 11.5 mph 16.1 mph N/A   Scattered Clouds
10:53 AM 66.9 °F - 57.0 °F 70% 29.86 in 10.0 mi SSW 10.4 mph 17.3 mph N/A   Partly Cloudy
11:53 AM 70.0 °F - 55.9 °F 61% 29.84 in 10.0 mi SSW 15.0 mph 24.2 mph N/A   Clear
12:53 PM 73.0 °F - 55.9 °F 55% 29.82 in 10.0 mi SW 9.2 mph 18.4 mph N/A   Clear
1:53 PM 75.9 °F - 55.9 °F 50% 29.80 in 10.0 mi Variable 6.9 mph 16.1 mph N/A   Clear
2:53 PM 77.0 °F - 55.9 °F 48% 29.78 in 10.0 mi South 9.2 mph - N/A   Clear
3:53 PM 80.1 °F 80.1 °F 55.0 °F 42% 29.76 in 10.0 mi Variable 5.8 mph - N/A   Clear
4:53 PM 79.0 °F - 54.0 °F 42% 29.76 in 10.0 mi Variable 5.8 mph - N/A   Clear
5:53 PM 80.1 °F 79.9 °F 53.1 °F 39% 29.75 in 10.0 mi Variable 5.8 mph - N/A   Clear
6:53 PM 78.1 °F - 55.0 °F 45% 29.75 in 10.0 mi Variable 4.6 mph - N/A   Clear
7:53 PM 75.9 °F - 55.0 °F 48% 29.78 in 10.0 mi Calm Calm - N/A   Clear
8:53 PM 69.1 °F - 54.0 °F 58% 29.81 in 10.0 mi West 3.5 mph - N/A   Clear
9:53 PM 68.0 °F - 53.1 °F 59% 29.82 in 10.0 mi NNW 5.8 mph - N/A   Clear
10:53 PM 64.9 °F - 53.1 °F 65% 29.83 in 10.0 mi NNW 4.6 mph - N/A   Clear
11:53 PM 68.0 °F - 46.9 °F 47% 29.82 in 10.0 mi NNE 6.9 mph - N/A   Clear